This demonstration page uses our WeatherBlox Daily Observations layout. Learn more.

Left ArrowRight Arrow

40.92945, -100.16068

Hourly Observations for June 5, 2020

Temp ( °F °C ) Dew Point ( °F °C ) Humidity (%) Winds ( mph kmh ) Pressure ( in mb ) Visibility ( mi km ) Precip ( " mm )
12:15 am 00:15 Clear 66 18.8 62 16.8 88 88 N 5 7 29.74 1007 10 16.0934 0 0
12:35 am 00:35 Clear 66 19 62 16.7 87 87 ENE 6 9 29.74 1007 10 16.0934 0 0
12:55 am 00:55 Clear 66 18.9 62 16.6 87 87 NNE 3 6 29.75 1008 10 16.0934 0 0
1:15 am 01:15 Clear 65 18.1 62 16.6 91 91 Calm 29.75 1007 10 16.0934 0 0
1:35 am 01:35 Clear 63 17 60 15.8 93 93 Calm 29.76 1008 10 16.0934 0 0
1:55 am 01:55 Clear 62 16.6 60 15.5 93 93 NE 6 9 29.77 1008 10 16.0934 0 0
2:15 am 02:15 Clear 62 16.5 60 15.5 94 94 NE 7 11 29.78 1009 10 16.0934 0 0
2:35 am 02:35 Clear 63 17 60 15.6 92 92 NE 7 11 29.79 1009 10 16.0934 0 0
2:55 am 02:55 Clear 65 18.1 60 15.8 87 87 NNE 6 9 29.78 1008 10 16.0934 0 0
3:15 am 03:15 Clear 65 18.1 61 15.9 87 87 NNE 6 9 29.8 1009 10 16.0934 0 0
3:35 am 03:35 Clear 64 17.5 60 15.6 89 89 ENE 3 6 29.79 1009 10 16.0934 0 0
3:55 am 03:55 Clear 62 16.5 59 15 91 91 S 3 6 29.81 1010 10 16.0934 0 0
4:15 am 04:15 Clear 61 16 59 15 94 94 Calm 29.82 1010 10 16.0934 0 0
4:35 am 04:35 Clear 61 16 59 15 94 94 S 5 7 29.82 1010 10 16.0934 0 0
4:55 am 04:55 Clear 61 15.9 58 14.6 92 92 Calm 29.83 1010 10 16.0934 0 0
5:15 am 05:15 Clear 60 15.5 59 14.8 96 96 NNE 6 9 29.85 1011 10 16.0934 0 0
5:35 am 05:35 Clear 60 15.3 58 14.6 96 96 Calm 29.84 1011 10 16.0934 0 0
5:55 am 05:55 Clear 58 14.7 58 14.3 97 97 Calm 29.85 1011 10 16.0934 0 0
6:15 am 06:15 Sunny 56 13.4 55 12.8 96 96 Calm 29.86 1011 10 16.0934 0 0
6:35 am 06:35 Sunny 58 14.3 57 14 98 98 Calm 29.86 1011 10 16.0934 0 0
6:55 am 06:55 Sunny 58 14.3 57 13.8 97 97 ENE 3 6 29.87 1012 10 16.0934 0 0
7:15 am 07:15 Sunny 62 16.5 60 15.3 93 93 E 7 11 29.86 1011 10 16.0934 0 0
7:35 am 07:35 Sunny 64 17.9 61 15.9 88 88 ENE 6 9 29.85 1011 10 16.0934 0 0
7:55 am 07:55 Sunny 67 19.3 61 16.2 82 82 E 6 9 29.84 1010 10 16.0934 0 0
8:15 am 08:15 Sunny 69 20.8 62 16.4 76 76 E 7 11 29.83 1010 10 16.0934 0 0
8:35 am 08:35 Sunny 71 21.7 61 16.3 72 72 E 8 13 29.82 1010 10 16.0934 0 0
8:55 am 08:55 Sunny 73 22.7 61 16.1 66 66 E 7 11 29.82 1010 10 16.0934 0 0
9:15 am 09:15 Sunny 74 23.3 62 16.4 65 65 ENE 8 13 29.81 1010 10 16.0934 0 0
9:35 am 09:35 Sunny 75 24.1 62 16.4 62 62 ENE 8 13 29.82 1010 10 16.0934 0 0
9:55 am 09:55 Sunny 77 24.8 63 17.3 63 63 ENE 12 19 29.82 1010 10 16.0934 0 0
10:15 am 10:15 Sunny 78 25.4 63 17.3 61 61 E 9 15 29.82 1010 10 16.0934 0 0
10:35 am 10:35 Sunny 79 25.9 63 17.1 58 58 E 8 13 29.81 1010 10 16.0934 0 0
10:55 am 10:55 Sunny 80 26.5 63 17.4 57 57 E 9 15 29.81 1009 10 16.0934 0 0
11:15 am 11:15 Sunny 81 27.1 64 17.7 56 56 E 9 15 29.8 1009 10 16.0934 0 0
11:35 am 11:35 Sunny 82 27.6 64 17.5 54 54 E 13 20 29.8 1009 10 16.0934 0 0
11:55 am 11:55 Sunny 83 28.1 64 17.6 53 53 E 15 24 29.79 1009 10 16.0934 0 0
12:15 pm 12:15 Sunny 83 28.5 63 17.3 51 51 E 10 17 29.79 1009 10 16.0934 0 0
12:35 pm 12:35 Sunny 84 28.8 63 17 49 49 E 13 20 29.79 1009 10 16.0934 0 0
12:55 pm 12:55 Sunny 84 29.1 63 17.4 49 49 ESE 14 22 29.79 1009 10 16.0934 0 0
1:15 pm 13:15 Sunny 85 29.7 65 18.5 51 51 ESE 9 15 29.78 1009 10 16.0934 0 0
1:35 pm 13:35 Sunny 86 29.9 65 18.5 50 50 ESE 8 13 29.77 1008 10 16.0934 0 0
1:55 pm 13:55 Sunny 86 30.2 65 18.4 49 49 E 8 13 29.76 1008 10 16.0934 0 0
2:15 pm 14:15 Sunny 87 30.4 65 18.6 49 49 E 10 17 29.76 1008 10 16.0934 0 0
2:35 pm 14:35 Sunny 87 30.7 66 18.8 49 49 E 10 17 29.75 1008 10 16.0934 0 0
2:55 pm 14:55 Sunny 89 31.4 67 19.2 48 48 E 12 19 29.75 1007 10 16.0934 0 0
3:15 pm 15:15 Sunny 89 31.6 67 19.3 48 48 E 10 17 29.74 1007 10 16.0934 0 0
3:35 pm 15:35 Sunny 91 32.5 64 17.8 42 42 ESE 10 17 29.73 1007 10 16.0934 0 0
3:55 pm 15:55 Sunny 91 32.6 65 18.1 42 42 SE 8 13 29.73 1007 10 16.0934 0 0
4:15 pm 16:15 Sunny 91 32.5 63 17.3 40 40 SSE 8 13 29.73 1007 10 16.0934 0 0
4:35 pm 16:35 Sunny 91 32.6 63 17.3 40 40 SE 7 11 29.73 1007 10 16.0934 0 0
4:55 pm 16:55 Sunny 91 32.6 62 16.9 39 39 S 7 11 29.72 1006 10 16.0934 0 0
5:15 pm 17:15 Sunny 91 32.5 63 17.2 40 40 SE 10 17 29.72 1006 10 16.0934 0 0
5:35 pm 17:35 Sunny 91 32.5 64 17.6 41 41 SE 6 9 29.71 1006 10 16.0934 0 0
5:55 pm 17:55 Sunny 90 32.4 64 17.5 41 41 SE 7 11 29.71 1006 10 16.0934 0 0
6:15 pm 18:15 Sunny 90 32.1 63 17.3 41 41 SSE 8 13 29.71 1006 10 16.0934 0 0
6:35 pm 18:35 Sunny 90 32 63 17 41 41 SSE 9 15 29.7 1006 10 16.0934 0 0
6:55 pm 18:55 Sunny 89 31.5 64 18 45 45 SE 9 15 29.71 1006 10 16.0934 0 0
7:15 pm 19:15 Sunny 88 31 62 16.9 43 43 SE 8 13 29.71 1006 10 16.0934 0 0
7:35 pm 19:35 Sunny 88 30.9 63 17.2 44 44 SE 8 13 29.71 1006 10 16.0934 0 0
7:55 pm 19:55 Sunny 86 30.2 62 16.9 45 45 SE 8 13 29.72 1006 10 16.0934 0 0
8:15 pm 20:15 Sunny 85 29.6 62 16.6 45 45 SE 8 13 29.72 1007 10 16.0934 0 0
8:35 pm 20:35 Sunny 83 28.4 63 17.1 50 50 SE 7 11 29.74 1007 10 16.0934 0 0
8:55 pm 20:55 Sunny 81 27 63 17.3 55 55 SE 6 9 29.75 1008 10 16.0934 0 0
9:15 pm 21:15 Clear 79 26.1 62 16.8 57 57 SE 6 9 29.76 1008 10 16.0934 0 0
9:35 pm 21:35 Clear 78 25.4 62 16.9 59 59 E 3 6 29.78 1008 10 16.0934 0 0
9:55 pm 21:55 Clear 72 22.4 65 18.1 77 77 ESE 5 7 29.8 1009 10 16.0934 0 0
10:15 pm 22:15 Clear 73 22.8 64 17.7 73 73 SE 3 6 29.81 1009 10 16.0934 0 0
10:35 pm 22:35 Clear 71 21.7 64 17.6 78 78 ENE 5 7 29.83 1010 10 16.0934 0 0
10:55 pm 22:55 Clear 70 20.9 64 17.8 83 83 E 6 9 29.84 1011 10 16.0934 0 0
11:15 pm 23:15 Clear 71 21.5 64 17.7 79 79 E 7 11 29.84 1010 10 16.0934 0 0
11:35 pm 23:35 Clear 71 21.5 64 18 81 81 ESE 7 11 29.84 1010 10 16.0934 0 0
11:55 pm 23:55 Clear 73 23 65 18.2 74 74 SE 7 11 29.82 1010 10 16.0934 0 0

Powered by AerisWeather